STARLINK-31704 (59586 NORAD) Tracking and Keplerian Element Data

This shows tracking and keplerian element data for the satellite.

Feedback or suggestion? Click here.




ElementValue
Catalog59586
NameSTARLINK-31704
Epoch Orbit836
Epoch Day160.05622699
Epoch Year2024
RAAN48.496
Inclination42.9981
Eccentricity0.0002715
Argument of Perigee283.144
Mean Anonmoly76.9127
Mean Motion15.78438508
Decay Rate0.00250288
L11 59586U 24076Y 24160.05622699 .00250288 00000+0 13631-2 0 9994
L22 59586 42.9981 48.4960 0002715 283.1440 76.9127 15.78438508 8364



Live tracking and technical data element details for STARLINK-31704 (NORAD 59586). STARLINK-31704 can be tracked NOW for your location showing map with azimuth and elevation plus other details from your city location.







IsCatalogInMostPopularTable: catalog: 59586, numindb: 11
Update: records affected: 1



GetName: 59586 STARLINK-31704

Hit Count: updated at: Fri, 14 Jun 2024 19:53:50 GMT